Year,Month,Day,Hour,Minute,Value (Times are PST for windspeed in km/hr)
2018,03,01,00,00,4.10
2018,03,01,00,01,1.10
2018,03,01,00,02,3.20
2018,03,01,00,03,3.10
2018,03,01,00,04,2.50
2018,03,01,00,05,2.60
2018,03,01,00,06,3.20
2018,03,01,00,07,0.30
2018,03,01,00,08,0.00
2018,03,01,00,09,0.00
2018,03,01,00,10,0.00
2018,03,01,00,11,0.00
2018,03,01,00,12,0.00
2018,03,01,00,13,0.00
2018,03,01,00,14,0.00
2018,03,01,00,15,0.00
2018,03,01,00,16,0.00
2018,03,01,00,17,0.00
2018,03,01,00,18,0.00
2018,03,01,00,19,0.00
2018,03,01,00,20,0.00
2018,03,01,00,21,0.00
2018,03,01,00,22,0.00
2018,03,01,00,23,0.00
2018,03,01,00,24,0.00
2018,03,01,00,25,0.00
2018,03,01,00,26,0.00
2018,03,01,00,27,0.00
2018,03,01,00,28,0.00
2018,03,01,00,29,0.00
2018,03,01,00,30,0.00
2018,03,01,00,31,0.00
2018,03,01,00,32,0.10
2018,03,01,00,33,0.20
2018,03,01,00,34,0.00
2018,03,01,00,35,0.00
2018,03,01,00,36,0.00
2018,03,01,00,37,0.00
2018,03,01,00,38,0.00
2018,03,01,00,39,0.00
2018,03,01,00,40,0.00
2018,03,01,00,41,0.00
2018,03,01,00,42,0.00
2018,03,01,00,43,0.00
2018,03,01,00,44,0.00
2018,03,01,00,45,0.00
2018,03,01,00,46,0.00
2018,03,01,00,47,0.00
2018,03,01,00,48,0.00
2018,03,01,00,49,0.00
2018,03,01,00,50,0.00
2018,03,01,00,51,0.00
2018,03,01,00,52,0.00
2018,03,01,00,53,0.00
2018,03,01,00,54,0.00
2018,03,01,00,55,0.00
2018,03,01,00,56,0.00
2018,03,01,00,57,0.00
2018,03,01,00,58,0.00
2018,03,01,00,59,0.00
2018,03,01,01,00,0.00
2018,03,01,01,01,0.00
2018,03,01,01,02,0.00
2018,03,01,01,03,0.00
2018,03,01,01,04,0.00
2018,03,01,01,05,0.00
2018,03,01,01,06,0.00
2018,03,01,01,07,0.00
2018,03,01,01,08,0.00
2018,03,01,01,09,0.00
2018,03,01,01,10,0.00
2018,03,01,01,11,0.00
2018,03,01,01,12,0.00
2018,03,01,01,13,0.00
2018,03,01,01,14,0.00
2018,03,01,01,15,0.00
2018,03,01,01,16,0.00
2018,03,01,01,17,0.00
2018,03,01,01,18,0.00
2018,03,01,01,19,0.00
2018,03,01,01,20,0.00
2018,03,01,01,21,0.00
2018,03,01,01,22,0.00
2018,03,01,01,23,0.00
2018,03,01,01,24,2.20
2018,03,01,01,25,4.90
2018,03,01,01,26,3.20
2018,03,01,01,27,4.60
2018,03,01,01,28,5.00
2018,03,01,01,29,4.20
2018,03,01,01,30,5.20
2018,03,01,01,31,5.80
2018,03,01,01,32,5.10
2018,03,01,01,33,5.10
2018,03,01,01,34,5.50
2018,03,01,01,35,3.90
2018,03,01,01,36,4.70
2018,03,01,01,37,4.60
2018,03,01,01,38,4.80
2018,03,01,01,39,4.30
2018,03,01,01,40,5.20
2018,03,01,01,41,3.90
2018,03,01,01,42,3.80
2018,03,01,01,43,6.30
2018,03,01,01,44,4.30
2018,03,01,01,45,4.20
2018,03,01,01,46,5.80
2018,03,01,01,47,5.90
2018,03,01,01,48,5.70
2018,03,01,01,49,3.70
2018,03,01,01,50,5.40
2018,03,01,01,51,5.40
2018,03,01,01,52,5.30
2018,03,01,01,53,3.20
2018,03,01,01,54,3.50
2018,03,01,01,55,3.40
2018,03,01,01,56,2.10
2018,03,01,01,57,2.10
2018,03,01,01,58,1.90
2018,03,01,01,59,1.90
2018,03,01,02,00,3.20
2018,03,01,02,01,3.40
2018,03,01,02,02,3.50
2018,03,01,02,03,3.00
2018,03,01,02,04,0.80
2018,03,01,02,05,0.70
2018,03,01,02,06,0.30
2018,03,01,02,07,0.00
2018,03,01,02,08,0.00
2018,03,01,02,09,0.00
2018,03,01,02,10,0.50
2018,03,01,02,11,1.80
2018,03,01,02,12,2.40
2018,03,01,02,13,2.70
2018,03,01,02,14,2.70
2018,03,01,02,15,3.20
2018,03,01,02,16,3.70
2018,03,01,02,17,4.20
2018,03,01,02,18,4.40
2018,03,01,02,19,3.70
2018,03,01,02,20,4.70
2018,03,01,02,21,3.50
2018,03,01,02,22,5.10
2018,03,01,02,23,4.90
2018,03,01,02,24,3.90
2018,03,01,02,25,2.70
2018,03,01,02,26,3.60
2018,03,01,02,27,2.30
2018,03,01,02,28,0.20
2018,03,01,02,29,0.00
2018,03,01,02,30,0.00
2018,03,01,02,31,3.90
2018,03,01,02,32,8.80
2018,03,01,02,33,10.40
2018,03,01,02,34,6.60
2018,03,01,02,35,7.00
2018,03,01,02,36,7.20
2018,03,01,02,37,4.30
2018,03,01,02,38,3.50
2018,03,01,02,39,3.00
2018,03,01,02,40,2.80
2018,03,01,02,41,3.60
2018,03,01,02,42,1.80
2018,03,01,02,43,2.60
2018,03,01,02,44,3.70
2018,03,01,02,45,4.20
2018,03,01,02,46,4.40
2018,03,01,02,47,4.30
2018,03,01,02,48,4.60
2018,03,01,02,49,5.20
2018,03,01,02,50,4.20
2018,03,01,02,51,3.20
2018,03,01,02,52,7.20
2018,03,01,02,53,10.90
2018,03,01,02,54,6.90
2018,03,01,02,55,6.60
2018,03,01,02,56,3.20
2018,03,01,02,57,1.80
2018,03,01,02,58,3.80
2018,03,01,02,59,4.10
2018,03,01,03,00,1.70
2018,03,01,03,01,2.80
2018,03,01,03,02,3.00
2018,03,01,03,03,2.70
2018,03,01,03,04,4.20
2018,03,01,03,05,4.80
2018,03,01,03,06,5.90
2018,03,01,03,07,4.70
2018,03,01,03,08,3.30
2018,03,01,03,09,3.10
2018,03,01,03,10,2.50
2018,03,01,03,11,0.40
2018,03,01,03,12,2.30
2018,03,01,03,13,1.20
2018,03,01,03,14,0.00
2018,03,01,03,15,1.50
2018,03,01,03,16,3.20
2018,03,01,03,17,3.10
2018,03,01,03,18,2.70
2018,03,01,03,19,3.30
2018,03,01,03,20,2.70
2018,03,01,03,21,2.70
2018,03,01,03,22,1.60
2018,03,01,03,23,0.10
2018,03,01,03,24,0.50
2018,03,01,03,25,2.50
2018,03,01,03,26,1.90
2018,03,01,03,27,0.10
2018,03,01,03,28,1.70
2018,03,01,03,29,2.50
2018,03,01,03,30,1.00
2018,03,01,03,31,0.30
2018,03,01,03,32,0.50
2018,03,01,03,33,1.00
2018,03,01,03,34,0.70
2018,03,01,03,35,0.20
2018,03,01,03,36,0.00
2018,03,01,03,37,0.00
2018,03,01,03,38,0.00
2018,03,01,03,39,1.70
2018,03,01,03,40,1.00
2018,03,01,03,41,0.00
2018,03,01,03,42,0.10
2018,03,01,03,43,0.00
2018,03,01,03,44,0.00
2018,03,01,03,45,0.00
2018,03,01,03,46,0.20
2018,03,01,03,47,0.00
2018,03,01,03,48,0.00
2018,03,01,03,49,0.00
2018,03,01,03,50,0.00
2018,03,01,03,51,0.00
2018,03,01,03,52,0.00
2018,03,01,03,53,0.00
2018,03,01,03,54,0.00
2018,03,01,03,55,0.00
2018,03,01,03,56,0.00
2018,03,01,03,57,0.00
2018,03,01,03,58,0.00
2018,03,01,03,59,3.40
2018,03,01,04,00,3.40
2018,03,01,04,01,3.00
2018,03,01,04,02,1.70
2018,03,01,04,03,0.80
2018,03,01,04,04,0.60
2018,03,01,04,05,0.10
2018,03,01,04,06,0.00
2018,03,01,04,07,0.00
2018,03,01,04,08,0.40
2018,03,01,04,09,2.10
2018,03,01,04,10,0.90
2018,03,01,04,11,0.00
2018,03,01,04,12,0.00
2018,03,01,04,13,0.00
2018,03,01,04,14,0.00
2018,03,01,04,15,0.00
2018,03,01,04,16,0.00
2018,03,01,04,17,0.00
2018,03,01,04,18,0.00
2018,03,01,04,19,0.00
2018,03,01,04,20,0.00
2018,03,01,04,21,0.00
2018,03,01,04,22,0.00
2018,03,01,04,23,0.00
2018,03,01,04,24,0.00
2018,03,01,04,25,0.00
2018,03,01,04,26,0.00
2018,03,01,04,27,0.00
2018,03,01,04,28,0.00
2018,03,01,04,29,0.00
2018,03,01,04,30,0.00
2018,03,01,04,31,0.00
2018,03,01,04,32,0.80
2018,03,01,04,33,3.60
2018,03,01,04,34,4.60
2018,03,01,04,35,2.90
2018,03,01,04,36,2.90
2018,03,01,04,37,1.80
2018,03,01,04,38,1.10
2018,03,01,04,39,0.00
2018,03,01,04,40,0.00
2018,03,01,04,41,0.00
2018,03,01,04,42,0.00
2018,03,01,04,43,0.00
2018,03,01,04,44,0.00
2018,03,01,04,45,0.00
2018,03,01,04,46,4.00
2018,03,01,04,47,5.10
2018,03,01,04,48,2.90
2018,03,01,04,49,2.40
2018,03,01,04,50,3.90
2018,03,01,04,51,4.40
2018,03,01,04,52,5.40
2018,03,01,04,53,6.10
2018,03,01,04,54,4.40
2018,03,01,04,55,6.30
2018,03,01,04,56,5.30
2018,03,01,04,57,5.10
2018,03,01,04,58,5.20
2018,03,01,04,59,4.50
2018,03,01,05,00,6.70
2018,03,01,05,01,4.40
2018,03,01,05,02,3.40
2018,03,01,05,03,2.00
2018,03,01,05,04,0.40
2018,03,01,05,05,0.80
2018,03,01,05,06,2.90
2018,03,01,05,07,3.70
2018,03,01,05,08,1.30
2018,03,01,05,09,1.40
2018,03,01,05,10,1.30
2018,03,01,05,11,1.30
2018,03,01,05,12,2.10
2018,03,01,05,13,0.60
2018,03,01,05,14,1.00
2018,03,01,05,15,0.10
2018,03,01,05,16,0.40
2018,03,01,05,17,0.00
2018,03,01,05,18,0.00
2018,03,01,05,19,0.00
2018,03,01,05,20,0.00
2018,03,01,05,21,0.00
2018,03,01,05,22,0.00
2018,03,01,05,23,0.00
2018,03,01,05,24,0.00
2018,03,01,05,25,0.00
2018,03,01,05,26,0.00
2018,03,01,05,27,0.00
2018,03,01,05,28,0.00
2018,03,01,05,29,1.70
2018,03,01,05,30,2.10
2018,03,01,05,31,2.60
2018,03,01,05,32,4.90
2018,03,01,05,33,4.10
2018,03,01,05,34,5.20
2018,03,01,05,35,3.50
2018,03,01,05,36,4.50
2018,03,01,05,37,2.30
2018,03,01,05,38,3.40
2018,03,01,05,39,4.80
2018,03,01,05,40,2.70
2018,03,01,05,41,2.00
2018,03,01,05,42,1.70
2018,03,01,05,43,1.60
2018,03,01,05,44,1.90
2018,03,01,05,45,3.50
2018,03,01,05,46,3.60
2018,03,01,05,47,3.00
2018,03,01,05,48,3.90
2018,03,01,05,49,4.70
2018,03,01,05,50,8.00
2018,03,01,05,51,7.60
2018,03,01,05,52,6.60
2018,03,01,05,53,4.90
2018,03,01,05,54,5.40
2018,03,01,05,55,4.60
2018,03,01,05,56,4.80
2018,03,01,05,57,4.50
2018,03,01,05,58,3.80
2018,03,01,05,59,2.40
2018,03,01,06,00,2.20
2018,03,01,06,01,3.20
2018,03,01,06,02,0.80
2018,03,01,06,03,1.40
2018,03,01,06,04,4.20
2018,03,01,06,05,2.30
2018,03,01,06,06,3.70
2018,03,01,06,07,4.50
2018,03,01,06,08,4.70
2018,03,01,06,09,7.60
2018,03,01,06,10,4.80
2018,03,01,06,11,2.80
2018,03,01,06,12,3.60
2018,03,01,06,13,3.00
2018,03,01,06,14,6.00
2018,03,01,06,15,5.50
2018,03,01,06,16,4.80
2018,03,01,06,17,3.00
2018,03,01,06,18,3.60
2018,03,01,06,19,3.50
2018,03,01,06,20,3.00
2018,03,01,06,21,2.30
2018,03,01,06,22,2.30
2018,03,01,06,23,2.10
2018,03,01,06,24,2.40
2018,03,01,06,25,2.10
2018,03,01,06,26,2.30
2018,03,01,06,27,1.60
2018,03,01,06,28,1.60
2018,03,01,06,29,0.00
2018,03,01,06,30,0.00
2018,03,01,06,31,1.70
2018,03,01,06,32,1.90
2018,03,01,06,33,1.80
2018,03,01,06,34,0.90
2018,03,01,06,35,0.00
2018,03,01,06,36,1.00
2018,03,01,06,37,0.00
2018,03,01,06,38,0.00
2018,03,01,06,39,0.00
2018,03,01,06,40,0.00
2018,03,01,06,41,0.00
2018,03,01,06,42,0.70
2018,03,01,06,43,1.30
2018,03,01,06,44,0.80
2018,03,01,06,45,0.80
2018,03,01,06,46,2.10
2018,03,01,06,47,1.80
2018,03,01,06,48,0.80
2018,03,01,06,49,4.00
2018,03,01,06,50,2.40
2018,03,01,06,51,4.00
2018,03,01,06,52,4.50
2018,03,01,06,53,2.70
2018,03,01,06,54,3.80
2018,03,01,06,55,3.10
2018,03,01,06,56,2.00
2018,03,01,06,57,0.80
2018,03,01,06,58,0.40
2018,03,01,06,59,0.50
2018,03,01,07,00,0.30
2018,03,01,07,01,0.00
2018,03,01,07,02,0.00
2018,03,01,07,03,0.00
2018,03,01,07,04,0.00
2018,03,01,07,05,0.00
2018,03,01,07,06,0.00
2018,03,01,07,07,0.00
2018,03,01,07,08,0.00
2018,03,01,07,09,0.00
2018,03,01,07,10,0.00
2018,03,01,07,11,0.00
2018,03,01,07,12,0.00
2018,03,01,07,13,0.00
2018,03,01,07,14,2.30
2018,03,01,07,15,2.30
2018,03,01,07,16,2.00
2018,03,01,07,17,1.40
2018,03,01,07,18,1.60
2018,03,01,07,19,3.00
2018,03,01,07,20,3.20
2018,03,01,07,21,1.80
2018,03,01,07,22,0.90
2018,03,01,07,23,1.10
2018,03,01,07,24,1.60
2018,03,01,07,25,2.10
2018,03,01,07,26,2.10
2018,03,01,07,27,1.70
2018,03,01,07,28,2.20
2018,03,01,07,29,0.90
2018,03,01,07,30,0.50
2018,03,01,07,31,0.20
2018,03,01,07,32,0.20
2018,03,01,07,33,0.00
2018,03,01,07,34,0.00
2018,03,01,07,35,0.00
2018,03,01,07,36,0.00
2018,03,01,07,37,0.00
2018,03,01,07,38,0.00
2018,03,01,07,39,0.00
2018,03,01,07,40,0.00
2018,03,01,07,41,0.00
2018,03,01,07,42,0.00
2018,03,01,07,43,0.00
2018,03,01,07,44,0.00
2018,03,01,07,45,0.00
2018,03,01,07,46,0.00
2018,03,01,07,47,0.00
2018,03,01,07,48,0.20
2018,03,01,07,49,1.50
2018,03,01,07,50,0.50
2018,03,01,07,51,1.00
2018,03,01,07,52,0.00
2018,03,01,07,53,0.00
2018,03,01,07,54,0.00
2018,03,01,07,55,0.00
2018,03,01,07,56,0.00
2018,03,01,07,57,0.00
2018,03,01,07,58,0.00
2018,03,01,07,59,0.00
2018,03,01,08,00,0.00
2018,03,01,08,01,0.00
2018,03,01,08,02,0.00
2018,03,01,08,03,0.50
2018,03,01,08,04,2.30
2018,03,01,08,05,0.00
2018,03,01,08,06,0.00
2018,03,01,08,07,0.00
2018,03,01,08,08,0.00
2018,03,01,08,09,0.00
2018,03,01,08,10,0.00
2018,03,01,08,11,0.00
2018,03,01,08,12,0.00
2018,03,01,08,13,0.50
2018,03,01,08,14,1.20
2018,03,01,08,15,0.20
2018,03,01,08,16,0.80
2018,03,01,08,17,0.00
2018,03,01,08,18,0.00
2018,03,01,08,19,0.00
2018,03,01,08,20,1.10
2018,03,01,08,21,0.90
2018,03,01,08,22,0.00
2018,03,01,08,23,0.00
2018,03,01,08,24,0.00
2018,03,01,08,25,0.00
2018,03,01,08,26,0.00
2018,03,01,08,27,0.00
2018,03,01,08,28,0.00
2018,03,01,08,29,0.00
2018,03,01,08,30,0.00
2018,03,01,08,31,0.00
2018,03,01,08,32,0.00
2018,03,01,08,33,0.00
2018,03,01,08,34,0.00
2018,03,01,08,35,0.00
2018,03,01,08,36,0.00
2018,03,01,08,37,0.00
2018,03,01,08,38,0.00
2018,03,01,08,39,0.00
2018,03,01,08,40,0.00
2018,03,01,08,41,0.00
2018,03,01,08,42,0.00
2018,03,01,08,43,0.00
2018,03,01,08,44,0.00
2018,03,01,08,45,0.00
2018,03,01,08,46,0.00
2018,03,01,08,47,0.00
2018,03,01,08,48,0.00
2018,03,01,08,49,0.00
2018,03,01,08,50,0.00
2018,03,01,08,51,0.00
2018,03,01,08,52,0.00
2018,03,01,08,53,0.00
2018,03,01,08,54,0.00
2018,03,01,08,55,0.00
2018,03,01,08,56,0.00
2018,03,01,08,57,0.00
2018,03,01,08,58,0.00
2018,03,01,08,59,0.00
2018,03,01,09,00,0.00
2018,03,01,09,01,0.00
2018,03,01,09,02,0.00
2018,03,01,09,03,0.00
2018,03,01,09,04,0.00
2018,03,01,09,05,0.00
2018,03,01,09,06,0.00
2018,03,01,09,07,0.00
2018,03,01,09,08,0.00
2018,03,01,09,09,0.00
2018,03,01,09,10,0.00
2018,03,01,09,11,0.00
2018,03,01,09,12,0.00
2018,03,01,09,13,0.00
2018,03,01,09,14,0.00
2018,03,01,09,15,0.00
2018,03,01,09,16,0.00
2018,03,01,09,17,0.00
2018,03,01,09,18,0.00
2018,03,01,09,19,0.00
2018,03,01,09,20,0.00
2018,03,01,09,21,0.00
2018,03,01,09,22,0.00
2018,03,01,09,23,0.00
2018,03,01,09,24,0.00
2018,03,01,09,25,0.00
2018,03,01,09,26,0.00
2018,03,01,09,27,0.00
2018,03,01,09,28,0.00
2018,03,01,09,29,0.00
2018,03,01,09,30,0.00
2018,03,01,09,31,0.00
2018,03,01,09,32,0.00
2018,03,01,09,33,0.00
2018,03,01,09,34,0.00
2018,03,01,09,35,0.00
2018,03,01,09,36,0.00
2018,03,01,09,37,0.00
2018,03,01,09,38,0.00
2018,03,01,09,39,0.00
2018,03,01,09,40,1.00
2018,03,01,09,41,4.40
2018,03,01,09,42,3.10
2018,03,01,09,43,3.40
2018,03,01,09,44,2.70
2018,03,01,09,45,3.10
2018,03,01,09,46,1.30
2018,03,01,09,47,2.30
2018,03,01,09,48,0.90
2018,03,01,09,49,0.00
2018,03,01,09,50,0.00
2018,03,01,09,51,0.00
2018,03,01,09,52,0.00
2018,03,01,09,53,0.00
2018,03,01,09,54,0.00
2018,03,01,09,55,0.00
2018,03,01,09,56,0.00
2018,03,01,09,57,0.00
2018,03,01,09,58,0.00
2018,03,01,09,59,0.00
2018,03,01,10,00,0.00
2018,03,01,10,01,0.00
2018,03,01,10,02,0.00
2018,03,01,10,03,0.00
2018,03,01,10,04,0.00
2018,03,01,10,05,0.00
2018,03,01,10,06,1.30
2018,03,01,10,07,0.20
2018,03,01,10,08,0.00
2018,03,01,10,09,0.00
2018,03,01,10,10,0.00
2018,03,01,10,11,0.00
2018,03,01,10,12,0.00
2018,03,01,10,13,0.00
2018,03,01,10,14,0.00
2018,03,01,10,15,0.00
2018,03,01,10,16,0.00
2018,03,01,10,17,0.00
2018,03,01,10,18,0.00
2018,03,01,10,19,0.00
2018,03,01,10,20,0.00
2018,03,01,10,21,0.00
2018,03,01,10,22,0.00
2018,03,01,10,23,0.00
2018,03,01,10,24,0.00
2018,03,01,10,25,0.60
2018,03,01,10,26,3.30
2018,03,01,10,27,3.70
2018,03,01,10,28,3.00
2018,03,01,10,29,4.90
2018,03,01,10,30,3.70
2018,03,01,10,31,2.90
2018,03,01,10,32,1.40
2018,03,01,10,33,2.40
2018,03,01,10,34,0.00
2018,03,01,10,35,0.00
2018,03,01,10,36,0.00
2018,03,01,10,37,0.00
2018,03,01,10,38,0.00
2018,03,01,10,39,0.00
2018,03,01,10,40,0.00
2018,03,01,10,41,0.00
2018,03,01,10,42,0.00
2018,03,01,10,43,0.00
2018,03,01,10,44,0.00
2018,03,01,10,45,0.00
2018,03,01,10,46,0.00
2018,03,01,10,47,0.00
2018,03,01,10,48,2.60
2018,03,01,10,49,2.10
2018,03,01,10,50,0.10
2018,03,01,10,51,0.00
2018,03,01,10,52,1.80
2018,03,01,10,53,3.90
2018,03,01,10,54,1.90
2018,03,01,10,55,0.80
2018,03,01,10,56,4.00
2018,03,01,10,57,2.50
2018,03,01,10,58,4.20
2018,03,01,10,59,1.20
2018,03,01,11,00,0.00
2018,03,01,11,01,2.00
2018,03,01,11,02,0.00
2018,03,01,11,03,0.00
2018,03,01,11,04,0.00
2018,03,01,11,05,0.00
2018,03,01,11,06,0.00
2018,03,01,11,07,0.00
2018,03,01,11,08,0.00
2018,03,01,11,09,0.00
2018,03,01,11,10,0.00
2018,03,01,11,11,0.00
2018,03,01,11,12,0.00
2018,03,01,11,13,0.00
2018,03,01,11,14,0.00
2018,03,01,11,15,0.00
2018,03,01,11,16,0.00
2018,03,01,11,17,0.00
2018,03,01,11,18,0.00
2018,03,01,11,19,0.00
2018,03,01,11,20,0.00
2018,03,01,11,21,0.00
2018,03,01,11,22,0.00
2018,03,01,11,23,0.00
2018,03,01,11,24,0.00
2018,03,01,11,25,4.20
2018,03,01,11,26,3.00
2018,03,01,11,27,4.00
2018,03,01,11,28,4.00
2018,03,01,11,29,1.10
2018,03,01,11,30,0.10
2018,03,01,11,31,1.10
2018,03,01,11,32,2.30
2018,03,01,11,33,2.30
2018,03,01,11,34,2.90
2018,03,01,11,35,3.30
2018,03,01,11,36,3.80
2018,03,01,11,37,2.60
2018,03,01,11,38,2.80
2018,03,01,11,39,0.90
2018,03,01,11,40,0.00
2018,03,01,11,41,3.80
2018,03,01,11,42,3.30
2018,03,01,11,43,3.10
2018,03,01,11,44,3.20
2018,03,01,11,45,0.70
2018,03,01,11,46,3.20
2018,03,01,11,47,1.00
2018,03,01,11,48,0.20
2018,03,01,11,49,0.20
2018,03,01,11,50,1.30
2018,03,01,11,51,1.70
2018,03,01,11,52,1.20
2018,03,01,11,53,3.00
2018,03,01,11,54,1.80
2018,03,01,11,55,3.10
2018,03,01,11,56,3.90
2018,03,01,11,57,2.60
2018,03,01,11,58,4.00
2018,03,01,11,59,3.40
2018,03,01,12,00,3.10
2018,03,01,12,01,5.10
2018,03,01,12,02,6.60
2018,03,01,12,03,9.10
2018,03,01,12,04,8.20
2018,03,01,12,05,7.20
2018,03,01,12,06,9.20
2018,03,01,12,07,9.10
2018,03,01,12,08,6.70
2018,03,01,12,09,6.00
2018,03,01,12,10,10.70
2018,03,01,12,11,9.30
2018,03,01,12,12,5.70
2018,03,01,12,13,5.30
2018,03,01,12,14,5.80
2018,03,01,12,15,12.10
2018,03,01,12,16,15.70
2018,03,01,12,17,15.00
2018,03,01,12,18,7.30
2018,03,01,12,19,8.10
2018,03,01,12,20,13.10
2018,03,01,12,21,11.80
2018,03,01,12,22,9.20
2018,03,01,12,23,10.70
2018,03,01,12,24,11.60
2018,03,01,12,25,10.40
2018,03,01,12,26,10.60
2018,03,01,12,27,7.90
2018,03,01,12,28,7.00
2018,03,01,12,29,7.00
2018,03,01,12,30,5.30
2018,03,01,12,31,6.40
2018,03,01,12,32,6.30
2018,03,01,12,33,6.40
2018,03,01,12,34,6.00
2018,03,01,12,35,8.00
2018,03,01,12,36,9.70
2018,03,01,12,37,9.20
2018,03,01,12,38,8.10
2018,03,01,12,39,7.50
2018,03,01,12,40,7.50
2018,03,01,12,41,9.80
2018,03,01,12,42,9.50
2018,03,01,12,43,8.40
2018,03,01,12,44,13.10
2018,03,01,12,45,10.80
2018,03,01,12,46,10.90
2018,03,01,12,47,11.50
2018,03,01,12,48,14.40
2018,03,01,12,49,8.40
2018,03,01,12,50,10.90
2018,03,01,12,51,5.00
2018,03,01,12,52,8.90
2018,03,01,12,53,6.10
2018,03,01,12,54,2.40
2018,03,01,12,55,0.10
2018,03,01,12,56,2.30
2018,03,01,12,57,4.90
2018,03,01,12,58,7.20
2018,03,01,12,59,6.50
2018,03,01,13,00,3.70
2018,03,01,13,01,5.60
2018,03,01,13,02,8.60
2018,03,01,13,03,12.70
2018,03,01,13,04,11.60
2018,03,01,13,05,11.20
2018,03,01,13,06,10.70
2018,03,01,13,07,10.80
2018,03,01,13,08,12.30
2018,03,01,13,09,16.30
2018,03,01,13,10,17.70
2018,03,01,13,11,14.90
2018,03,01,13,12,15.10
2018,03,01,13,13,18.10
2018,03,01,13,14,13.60
2018,03,01,13,15,11.10
2018,03,01,13,16,13.10
2018,03,01,13,17,17.20
2018,03,01,13,18,19.60
2018,03,01,13,19,21.60
2018,03,01,13,20,16.30
2018,03,01,13,21,19.10
2018,03,01,13,22,19.30
2018,03,01,13,23,19.70
2018,03,01,13,24,23.50
2018,03,01,13,25,21.80
2018,03,01,13,26,21.20
2018,03,01,13,27,23.50
2018,03,01,13,28,24.30
2018,03,01,13,29,22.90
2018,03,01,13,30,20.60
2018,03,01,13,31,24.40
2018,03,01,13,32,21.20
2018,03,01,13,33,20.70
2018,03,01,13,34,17.80
2018,03,01,13,35,21.00
2018,03,01,13,36,22.30
2018,03,01,13,37,21.40
2018,03,01,13,38,28.10
2018,03,01,13,39,26.40
2018,03,01,13,40,21.30
2018,03,01,13,41,21.90
2018,03,01,13,42,21.20
2018,03,01,13,43,20.60
2018,03,01,13,44,21.80
2018,03,01,13,45,20.30
2018,03,01,13,46,23.40
2018,03,01,13,47,19.70
2018,03,01,13,48,16.50
2018,03,01,13,49,23.80
2018,03,01,13,50,21.90
2018,03,01,13,51,25.60
2018,03,01,13,52,20.80
2018,03,01,13,53,18.80
2018,03,01,13,54,17.70
2018,03,01,13,55,18.40
2018,03,01,13,56,19.60
2018,03,01,13,57,19.40
2018,03,01,13,58,18.50
2018,03,01,13,59,20.10
2018,03,01,14,00,18.40
2018,03,01,14,01,22.10
2018,03,01,14,02,19.50
2018,03,01,14,03,17.30
2018,03,01,14,04,16.90
2018,03,01,14,05,15.30
2018,03,01,14,06,16.80
2018,03,01,14,07,16.90
2018,03,01,14,08,19.00
2018,03,01,14,09,20.70
2018,03,01,14,10,18.00
2018,03,01,14,11,22.70
2018,03,01,14,12,19.00
2018,03,01,14,13,15.40
2018,03,01,14,14,16.60
2018,03,01,14,15,16.80
2018,03,01,14,16,15.00
2018,03,01,14,17,17.20
2018,03,01,14,18,16.20
2018,03,01,14,19,23.20
2018,03,01,14,20,22.50
2018,03,01,14,21,21.00
2018,03,01,14,22,15.70
2018,03,01,14,23,15.30
2018,03,01,14,24,15.60
2018,03,01,14,25,21.00
2018,03,01,14,26,18.90
2018,03,01,14,27,18.10
2018,03,01,14,28,16.00
2018,03,01,14,29,19.30
2018,03,01,14,30,20.30
2018,03,01,14,31,17.80
2018,03,01,14,32,18.30
2018,03,01,14,33,19.00
2018,03,01,14,34,20.10
2018,03,01,14,35,18.90
2018,03,01,14,36,16.50
2018,03,01,14,37,20.00
2018,03,01,14,38,20.30
2018,03,01,14,39,14.40
2018,03,01,14,40,22.40
2018,03,01,14,41,20.60
2018,03,01,14,42,21.20
2018,03,01,14,43,22.00
2018,03,01,14,44,18.10
2018,03,01,14,45,16.40
2018,03,01,14,46,19.80
2018,03,01,14,47,19.10
2018,03,01,14,48,17.90
2018,03,01,14,49,14.70
2018,03,01,14,50,17.50
2018,03,01,14,51,14.10
2018,03,01,14,52,10.50
2018,03,01,14,53,10.70
2018,03,01,14,54,14.90
2018,03,01,14,55,17.10
2018,03,01,14,56,12.90
2018,03,01,14,57,8.30
2018,03,01,14,58,12.50
2018,03,01,14,59,15.80
2018,03,01,15,00,12.70
2018,03,01,15,01,17.80
2018,03,01,15,02,17.10
2018,03,01,15,03,10.60
2018,03,01,15,04,16.90
2018,03,01,15,05,22.90
2018,03,01,15,06,20.40
2018,03,01,15,07,17.60
2018,03,01,15,08,13.90
2018,03,01,15,09,13.60
2018,03,01,15,10,17.20
2018,03,01,15,11,13.50
2018,03,01,15,12,12.90
2018,03,01,15,13,12.30
2018,03,01,15,14,9.90
2018,03,01,15,15,9.60
2018,03,01,15,16,14.20
2018,03,01,15,17,13.40
2018,03,01,15,18,15.60
2018,03,01,15,19,12.50
2018,03,01,15,20,14.10
2018,03,01,15,21,13.90
2018,03,01,15,22,14.40
2018,03,01,15,23,11.20
2018,03,01,15,24,5.90
2018,03,01,15,25,12.50
2018,03,01,15,26,10.40
2018,03,01,15,27,10.80
2018,03,01,15,28,15.40
2018,03,01,15,29,14.70
2018,03,01,15,30,12.00
2018,03,01,15,31,11.10
2018,03,01,15,32,13.60
2018,03,01,15,33,10.80
2018,03,01,15,34,9.40
2018,03,01,15,35,7.20
2018,03,01,15,36,9.70
2018,03,01,15,37,6.40
2018,03,01,15,38,9.50
2018,03,01,15,39,9.30
2018,03,01,15,40,11.50
2018,03,01,15,41,6.30
2018,03,01,15,42,3.30
2018,03,01,15,43,2.90
2018,03,01,15,44,3.40
2018,03,01,15,45,6.10
2018,03,01,15,46,6.50
2018,03,01,15,47,8.30
2018,03,01,15,48,5.70
2018,03,01,15,49,9.00
2018,03,01,15,50,5.80
2018,03,01,15,51,3.50
2018,03,01,15,52,5.10
2018,03,01,15,53,6.80
2018,03,01,15,54,4.10
2018,03,01,15,55,6.00
2018,03,01,15,56,5.20
2018,03,01,15,57,6.90
2018,03,01,15,58,6.40
2018,03,01,15,59,7.80
2018,03,01,16,00,6.10
2018,03,01,16,01,5.50
2018,03,01,16,02,8.30
2018,03,01,16,03,6.60
2018,03,01,16,04,5.10
2018,03,01,16,05,5.10
2018,03,01,16,06,6.10
2018,03,01,16,07,6.30
2018,03,01,16,08,7.20
2018,03,01,16,09,9.30
2018,03,01,16,10,6.90
2018,03,01,16,11,7.60
2018,03,01,16,12,10.60
2018,03,01,16,13,6.00
2018,03,01,16,14,7.50
2018,03,01,16,15,8.90
2018,03,01,16,16,11.70
2018,03,01,16,17,13.30
2018,03,01,16,18,14.50
2018,03,01,16,19,9.80
2018,03,01,16,20,12.70
2018,03,01,16,21,11.70
2018,03,01,16,22,11.40
2018,03,01,16,23,13.10
2018,03,01,16,24,11.30
2018,03,01,16,25,9.70
2018,03,01,16,26,15.60
2018,03,01,16,27,11.80
2018,03,01,16,28,11.90
2018,03,01,16,29,14.90
2018,03,01,16,30,12.80
2018,03,01,16,31,14.30
2018,03,01,16,32,14.50
2018,03,01,16,33,14.90
2018,03,01,16,34,11.10
2018,03,01,16,35,12.20
2018,03,01,16,36,11.70
2018,03,01,16,37,9.80
2018,03,01,16,38,14.40
2018,03,01,16,39,14.00
2018,03,01,16,40,9.70
2018,03,01,16,41,8.90
2018,03,01,16,42,5.70
2018,03,01,16,43,8.90
2018,03,01,16,44,8.00
2018,03,01,16,45,6.30
2018,03,01,16,46,3.50
2018,03,01,16,47,6.00
2018,03,01,16,48,3.70
2018,03,01,16,49,4.50
2018,03,01,16,50,5.60
2018,03,01,16,51,5.20
2018,03,01,16,52,4.20
2018,03,01,16,53,3.00
2018,03,01,16,54,5.80
2018,03,01,16,55,3.40
2018,03,01,16,56,3.70
2018,03,01,16,57,3.60
2018,03,01,16,58,3.30
2018,03,01,16,59,3.70
2018,03,01,17,00,6.40
2018,03,01,17,01,7.00
2018,03,01,17,02,6.70
2018,03,01,17,03,4.90
2018,03,01,17,04,4.80
2018,03,01,17,05,4.10
2018,03,01,17,06,4.10
2018,03,01,17,07,2.30
2018,03,01,17,08,1.30
2018,03,01,17,09,2.00
2018,03,01,17,10,2.10
2018,03,01,17,11,3.50
2018,03,01,17,12,6.20
2018,03,01,17,13,4.30
2018,03,01,17,14,5.70
2018,03,01,17,15,5.20
2018,03,01,17,16,5.40
2018,03,01,17,17,3.90
2018,03,01,17,18,2.90
2018,03,01,17,19,1.40
2018,03,01,17,20,4.10
2018,03,01,17,21,2.80
2018,03,01,17,22,1.70
2018,03,01,17,23,1.00
2018,03,01,17,24,1.30
2018,03,01,17,25,0.70
2018,03,01,17,26,0.60
2018,03,01,17,27,0.70
2018,03,01,17,28,2.60
2018,03,01,17,29,2.10
2018,03,01,17,30,0.40
2018,03,01,17,31,0.00
2018,03,01,17,32,0.00
2018,03,01,17,33,0.00
2018,03,01,17,34,0.00
2018,03,01,17,35,0.00
2018,03,01,17,36,0.00
2018,03,01,17,37,0.00
2018,03,01,17,38,0.00
2018,03,01,17,39,0.00
2018,03,01,17,40,0.00
2018,03,01,17,41,0.00
2018,03,01,17,42,0.00
2018,03,01,17,43,0.00
2018,03,01,17,44,0.00
2018,03,01,17,45,0.00
2018,03,01,17,46,0.00
2018,03,01,17,47,0.00
2018,03,01,17,48,0.00
2018,03,01,17,49,0.00
2018,03,01,17,50,0.00
2018,03,01,17,51,0.00
2018,03,01,17,52,0.00
2018,03,01,17,53,0.00
2018,03,01,17,54,0.00
2018,03,01,17,55,0.00
2018,03,01,17,56,0.00
2018,03,01,17,57,0.00
2018,03,01,17,58,0.00